Regional Weather Roundup
Issued by NWS Albany, NY

Home | Current Version | Previous Version | Text Only | Print | Product List | Glossary On
Versions: 1 2 3 4 5 6 7 8 9 10 11 12 13 14 15 16 17 18 19 20 21 22 23 24 25 26 27 28 29 30 31 32 33 34 35 36 37 38 39 40 41 42 43 44 45 46 47 48 49 50
110
ASUS41 KALY 080810
RWRALY

NEW YORK STATE HOURLY WEATHER ROUNDUP
NATIONAL WEATHER SERVICE ALBANY NY
300 AM EST THU DEC 08 2016

NOTE: "FAIR" INDICATES FEW OR NO CLOUDS BELOW 12,000 FEET WITH NO
SIGNIFICANT WEATHER AND/OR NO OBSTRUCTIONS TO VISIBILITY.

NYZ032-033-038>043-046>054-057>066-NYZ062>081-082-084-080900-
EAST


CITY           SKY/WX    TMP DP  RH WIND       PRES   REMARKS
ALBANY         FOG       34  33  96 S3        29.97F VSB 1/8
GLENS FALLS    CLOUDY    30  26  85 CALM      29.94F FOG
POUGHKEEPSIE   CLOUDY    28  28 100 CALM      29.98S
NEWBURGH       CLOUDY    32  32 100 CALM      29.98S
MONTGOMERY     CLOUDY    32  31  96 S5        29.97S WCI  27
WHITE PLAINS   CLOUDY    36  33  89 W6        29.97S WCI  31
ISLIP          CLOUDY    32  31  96 CALM      29.99S FOG
NEW YORK CITY  CLOUDY    44  30  57 W8        30.00R
CENTRAL PARK   CLOUDY    41  31  67 VRB5      30.02R
$$

NYZ005>009-017-018-044>046-055-056-080900-
CENTRAL


CITY           SKY/WX    TMP DP  RH WIND       PRES   REMARKS
FULTON         CLOUDY    36  26  67 VRB7      29.94S WCI  30
SYRACUSE       CLOUDY    35  26  69 SW10      29.94F WCI  27
ROME           CLOUDY    29  28  96 CALM      29.96S
ELMIRA         CLOUDY    34  23  64 W8        29.97F WCI  27
BINGHAMTON     CLOUDY    31  24  75 W8        29.93S WCI  23
MONTICELLO     CLOUDY    30  30 100 CALM      29.95F
$$

NYZ026>034-041>043-087-080900-
NORTH


CITY           SKY/WX    TMP DP  RH WIND       PRES   REMARKS
WATERTOWN      CLOUDY    38  31  76 W9        29.90S WCI  31
FORT DRUM      NOT AVBL
OGDENSBURG     FAIR      33  29  86 SW6       29.87F WCI  27
MASSENA        PTCLDY    34  26  72 SW9       29.88F WCI  27
SARANAC LAKE   CLOUDY    31  27  85 MISG      29.82F
PLATTSBURGH    CLOUDY    35  29  78 CALM      29.88F
$$

NYZ001>004-010>016-019>021-085-080900-
WEST


CITY           SKY/WX    TMP DP  RH WIND       PRES   REMARKS
NIAGARA FALLS  CLEAR     32  23  69 W12       29.93F WCI  23
BUFFALO        CLOUDY    33  23  66 W12       29.93S WCI  24
DUNKIRK        CLOUDY    36  25  64 SW16G23   29.95S WCI  26
JAMESTOWN      PTCLDY    30  21  69 SW10      29.93S WCI  21
WELLSVILLE     PTCLDY    29  20  69 MISG      29.92F
ROCHESTER      CLOUDY    34  25  69 SW6       29.93F WCI  29
PENN YAN       CLOUDY    34  22  61 S13       29.94F WCI  25
$$

             KEY
       WCI = WIND CHILL INDEX
       VSB = VISIBILITY
       HX  = HEAT INDEX
$$




USA.gov is the U.S. government's official web portal to all federal, state and local government web resources and services.